TIME,DELAY(SENSOR),PRES,OXYGEN,RAWTEMP,T(OPTODE),TCPHASE,FLUOR,BETA(BETA700),BETA(BETA412),BETA(BETA440),CDOM,C(CSC),ED(ED412.20),ED(ED444.00),ED(ED489.60),ED(ED554.30),LU(LU412.10),LU(LU443.90),LU(LU489.70),LU(LU554.70),COMP,TILTX,TILTY,CHECK
1370665036,5812,868.9299926757812000,31.8935699462890620,562.0313110351562000,4.4229240417480470,56.8045501708984400,55,98,99,77,81,15614,0,0,0,0,2147123446,2147769097,2147570048,2147566747,2587,2,13,5139
1370668632,5811,942.2100219726562000,38.2271385192871100,569.8649902343750000,4.1797561645507810,55.8807182312011700,55,98,98,77,79,15613,0,0,0,0,2147123373,2147768073,2147570925,2147568384,116,2,13,47001
1370672232,5810,948.4199829101562000,33.1705703735351560,571.1234741210938000,4.1406421661376950,56.6852798461914060,54,97,99,78,80,15613,0,0,0,0,2147122861,2147772763,2147572900,2147571309,187,2,13,9593
1370675832,5809,980.7500000000000000,36.0557289123535160,572.7584228515625000,4.0898108482360840,56.2423591613769500,55,97,99,77,80,15607,0,0,0,0,2147121910,2147770340,2147570843,2147568713,3357,2,13,457
1370679432,5809,984.1300048828125000,36.6106109619140600,573.2152099609375000,4.0756020545959470,56.1615791320800800,55,98,99,77,80,15610,0,0,0,0,2147122706,2147773750,2147568822,2147568786,3368,2,13,23041
1370683032,5809,991.2500000000000000,41.3658294677734400,574.1467285156250000,4.0466270446777340,55.4576301574707000,55,100,100,78,79,15607,0,0,0,0,2147119926,2147770916,2147567881,2147569682,407,2,13,59716
1370686632,5811,998.9099731445312000,38.4646415710449200,572.7001953125000000,4.0916190147399900,55.8776893615722660,55,104,99,78,80,15606,0,0,0,0,2147123858,2147769810,2147568694,2147570075,3403,2,13,47220
1370690232,5810,996.1400146484375000,33.7079505920410160,572.3461303710938000,4.1026310920715330,56.6084785461425800,56,97,99,79,82,15606,0,0,0,0,2147122441,2147767158,2147572205,2147566144,266,2,13,43825
1370693832,5811,1000.6300048828125000,33.8722190856933600,572.7056884765625000,4.0914502143859860,56.5825691223144500,55,97,100,78,81,15605,0,0,0,0,2147123072,2147770715,2147569837,2147569673,36,3,13,44855
1370697432,5810,999.4799804687500000,37.6063194274902340,573.5806274414062000,4.0642380714416500,56.0164794921875000,54,99,99,77,81,15605,0,0,0,0,2147121508,2147771035,2147569289,2147566116,104,2,13,18621
1370701032,5809,985.5800170898438000,39.9218902587890600,574.2598266601562000,4.0431098937988280,55.6777801513671900,54,99,100,78,80,15604,0,0,0,0,2147119396,2147769334,2147572644,2147564845,805,3,13,47660
1370704632,5811,999.2999877929688000,33.2770614624023440,574.5535888671875000,4.0339660644531250,56.6969490051269500,55,99,99,78,79,15606,0,0,0,0,2147120722,2147769270,2147572169,2147569435,205,2,13,32640
1370708232,5810,994.9400024414062000,35.3277511596679700,573.8056030273438000,4.0572381019592285,56.3708801269531250,54,98,99,78,82,15601,0,0,0,0,2147123264,2147772397,2147571401,2147567250,3503,2,13,9562
1370711832,5809,994.9199829101562000,31.2189903259277340,574.3953247070312000,4.0388932228088380,57.0350990295410160,55,99,99,78,81,15601,0,0,0,0,2147125156,2147770953,2147568173,2147566939,453,2,13,21715
1370715432,5809,994.4099731445312000,35.5100097656250000,574.0621948242188000,4.0492548942565920,56.3399581909179700,54,98,101,78,80,15591,0,0,0,0,2147121289,2147773942,2147573266,2147569225,3347,2,13,21865
1370719032,5810,997.5200195312500000,38.0584297180175800,575.6107788085938000,4.0010681152343750,55.9696006774902340,54,98,100,76,81,15601,0,0,0,0,2147123062,2147775341,2147569865,2147565714,3573,3,13,523
1370722632,5812,1003.1099853515625000,35.4436683654785160,575.5275878906250000,4.0036559104919430,56.3722305297851560,55,99,99,78,80,15600,0,0,0,0,2147121609,2147768969,2147566665,2147563867,13,3,13,2771
1370726232,5809,996.1900024414062000,36.3039093017578100,575.9987792968750000,3.9889910221099854,56.2405509948730500,55,103,98,77,80,15602,0,0,0,0,2147121536,2147773970,2147569938,2147570121,3185,2,13,46968
1370729832,5811,1003.0900268554688000,37.9672012329101560,575.0541992187500000,4.0183911323547360,55.9778709411621100,54,99,99,77,79,15602,0,0,0,0,2147122770,2147769792,2147575826,2147568027,63,2,13,54334
1370733432,5812,1009.1599731445312000,35.4166793823242200,573.1224975585938000,4.0784850120544430,56.3463401794433600,55,98,99,78,81,15600,0,0,0,0,2147122240,2147771675,2147574747,2147570587,86,2,13,61735
1370737032,5806,1002.5499877929688000,37.3229789733886700,572.9732055664062000,4.0831298828125000,56.0503196716308600,56,99,98,77,80,15599,0,0,0,0,2147120804,2147772653,2147572306,2147569700,418,3,13,3716
1370740632,5809,1005.9500122070312000,33.7084884643554700,573.2175903320312000,4.0755290985107420,56.6162681579589840,55,97,100,78,80,15597,0,0,0,0,2147123510,2147776082,2147570669,2147566738,3453,2,13,35336
1370744232,5808,992.6599731445312000,39.0947494506835940,574.6694946289062000,4.0303611755371090,55.8006706237793000,55,99,100,77,80,15600,0,0,0,0,2147122880,2147768859,2147567981,2147565074,3061,2,13,59355
1370747832,5807,994.7199707031250000,38.4989585876464840,575.7647705078125000,3.9962749481201170,55.9002609252929700,55,98,100,78,81,15596,0,0,0,0,2147120073,2147770779,2147566692,2147566948,171,2,13,47111
1370751432,5809,997.3200073242188000,36.9584808349609400,575.6179199218750000,4.0008468627929690,56.1327209472656250,54,98,100,79,80,15557,0,0,0,0,2147124891,2147774747,2147567396,2147567890,234,2,13,21149
1370755032,5811,1002.9299926757812000,39.3043785095214840,575.4365234375000000,4.0064930915832520,55.7763214111328100,55,97,99,78,81,15599,0,0,0,0,2147122880,2147771986,2147571931,2147567643,66,2,13,3745
1370758632,5811,999.0999755859375000,38.2428398132324200,576.6682128906250000,3.9681529998779297,55.9494895935058600,54,96,100,77,81,15596,0,0,0,0,2147120740,2147771008,2147570596,2147568722,3464,2,13,44667
1370762232,5810,1006.1599731445312000,37.9243202209472660,574.5814819335938000,4.0331001281738280,55.9739913940429700,55,98,98,78,80,15596,0,0,0,0,2147123574,2147773010,2147569243,2147565577,14,2,13,49658
1370765832,5810,999.3599853515625000,37.0775985717773440,574.7183837890625000,4.0288391113281250,56.1062889099121100,54,97,100,79,81,15597,0,0,0,0,2147119360,2147771766,2147568192,2147567204,168,2,13,22389
1370769432,5811,1012.4600219726562000,41.5186882019043000,574.5203857421875000,4.0349998474121090,55.4381713867187500,55,98,101,78,81,15597,0,0,0,0,2147122358,2147773074,2147571693,2147569755,3476,2,13,17364
1370773032,5808,1007.6500244140625000,38.0098190307617200,573.5062866210938000,4.0665469169616700,55.9527587890625000,55,98,100,77,81,15598,0,0,0,0,2147124461,2147767899,2147570669,2147564681,3296,3,13,17624
1370776632,5809,1004.7199707031250000,38.8550910949707000,574.5936279296875000,4.0327219963073730,55.8383598327636700,55,99,100,78,81,15596,0,0,0,0,2147122532,2147766482,2147569389,2147571154,3584,2,13,31388
1370780232,5812,1008.4400024414062000,38.0083389282226560,574.3997192382812000,4.0387549400329590,55.9648094177246100,55,97,98,78,81,15598,0,0,0,0,2147121435,2147766509,2147567725,2147570541,3522,3,13,55808
1370783832,5811,1007.0200195312500000,38.0828018188476560,574.5242919921875000,4.0348801612854000,55.9539604187011700,54,97,99,77,80,15594,0,0,0,0,2147123849,2147770532,2147569718,2147568018,146,2,13,50357
1370787432,5811,1009.6699829101562000,40.9912414550781250,574.4326171875000000,4.0377330780029300,55.5183105468750000,55,99,100,78,81,15596,0,0,0,0,2147121792,2147768329,2147568987,2147565869,3468,2,13,10819
1370791032,5807,1005.2999877929688000,39.2932395935058600,574.8151245117188000,4.0258312225341800,55.7706413269043000,55,97,98,77,81,15594,0,0,0,0,2147121307,2147767104,2147569408,2147567981,251,2,13,65482
1370794632,5810,1003.3300170898438000,38.2672882080078100,575.2875976562500000,4.0111269950866700,55.9316215515136700,55,97,100,79,81,15594,0,0,0,0,2147123584,2147771492,2147569636,2147566555,147,2,13,13368
1370798232,5809,1002.3800048828125000,37.3894195556640600,576.0244140625000000,3.9881949424743652,56.0712699890136700,54,96,100,77,80,15596,0,0,0,0,2147122706,2147773348,2147567680,2147566994,34,3,13,12559
1370801832,5812,1002.1199951171875000,35.8705406188964840,576.3643188476562000,3.9776129722595215,56.3128585815429700,55,97,100,78,82,15591,0,0,0,0,2147121654,2147771410,2147570221,2147563876,29,3,13,26649
1370805432,5811,997.3400268554688000,38.8155403137207000,576.3582763671875000,3.9778020381927490,55.8648109436035160,54,99,99,77,82,15595,0,0,0,0,2147123867,2147768603,2147567515,2147567204,231,2,13,62595
1370808956,5806,1008.6300048828125000,38.6836700439453100,576.5534057617188000,3.9717268943786620,55.8796501159668000,54,96,100,78,80,15594,0,0,0,0,2147122779,2147778944,2147573110,2147567113,3593,2,13,54307
